Wolf Point, MT

3:20 PM MST on December 09, 2016 (GMT -0700)
Clayton

Weather History for KOLF - February, 2014

Change the Weather History Date:

Tuesday, February 11, 2014

  Actual Average Record
Temperature  
Mean Temperature 15 °F -  
Max Temperature 34 °F 29 °F 53 °F (2005)
Min Temperature -4 °F 4 °F -10 °F (2012)
Degree Days  
Heating Degree Days 50    
Cooling Degree Days 0    
Moisture  
Dew Point 4 °F    
Average Humidity 71    
Maximum Humidity 80    
Minimum Humidity 54    
Precipitation  
Precipitation 0.00 in 0.01 in 0.04 in (2016)
Month to date precipitation T 0.06  
Year to date precipitation 0.06 0.37  
Sea Level Pressure  
Sea Level Pressure 30.00 in    
Wind  
Wind Speed 5 mph (North)    
Max Wind Speed 16 mph    
Max Gust Speed -    
Visibility 10 miles    
Events      
T = Trace of Precipitation, MM = Missing Value Source: NWS Daily Summary

Daily Weather History Graph

Daily Weather History Graph

Search for Another Location

Airport or City:

Trip Planner

Search our weather history database for the weather conditions in past years. The results will help you decide how hot, cold, wet, or windy it might be!

Date:

Astronomy

Feb. 11, 2014 Rise Set
Actual Time 7:15 AM MST 5:18 PM MST
Civil Twilight 6:42 AM MST 5:50 PM MST
Nautical Twilight 6:06 AM MST 6:27 PM MST
Astronomical Twilight 5:30 AM MST 7:03 PM MST
Moon 2:35 PM MST (2/11) 5:00 AM MST (2/11)
Length of Visible Light 11h 07m
Length of Day
10h 03m
Waxing Gibbous, 91% of the Moon is Illuminated
Feb 11
Waxing Gibbous
Feb 14
Full
Feb 22
Last Quarter
Mar 1
New
Mar 8
First Quarter

Hourly Weather History & Observations

Time (MST) Temp. Windchill Dew Point Humidity Pressure Visibility Wind Dir Wind Speed Gust Speed Precip Events Conditions
12:53 AM 3.9 °F -5.3 °F -0.9 °F 80% 29.96 in 10.0 mi NNE 4.6 mph - N/A   Clear
1:53 AM 8.1 °F - 3.0 °F 80% 29.91 in 10.0 mi Calm Calm - N/A   Overcast
2:53 AM 10.0 °F 3.6 °F 3.9 °F 76% 29.87 in 10.0 mi ENE 3.5 mph - N/A   Overcast
3:53 AM 10.9 °F - 5.0 °F 77% 29.84 in 10.0 mi Calm Calm - N/A   Mostly Cloudy
4:53 AM 10.0 °F - 3.9 °F 76% 29.84 in 10.0 mi Calm Calm - N/A   Clear
5:53 AM 10.0 °F - 3.9 °F 76% 29.84 in 10.0 mi Calm Calm - N/A   Mostly Cloudy
6:53 AM 12.0 °F 5.9 °F 6.1 °F 77% 29.83 in 10.0 mi SW 3.5 mph - N/A   Overcast
7:53 AM 12.0 °F -0.4 °F 6.1 °F 77% 29.84 in 10.0 mi WSW 9.2 mph - N/A   Clear
8:53 AM 15.1 °F 5.2 °F 8.1 °F 74% 29.86 in 10.0 mi WSW 6.9 mph - N/A   Clear
9:53 AM 23.0 °F 15.8 °F 14.0 °F 68% 29.86 in 10.0 mi SW 5.8 mph - N/A   Clear
10:53 AM 30.0 °F 24.1 °F 18.0 °F 61% 29.86 in 10.0 mi SW 5.8 mph - N/A   Clear
11:53 AM 32.0 °F 22.5 °F 17.1 °F 54% 29.86 in 10.0 mi North 12.7 mph - N/A   Clear
12:53 PM 26.1 °F 13.6 °F 12.0 °F 55% 29.90 in 10.0 mi North 16.1 mph - N/A   Mostly Cloudy
1:53 PM 21.0 °F 8.6 °F 9.0 °F 60% 29.95 in 10.0 mi NNE 12.7 mph - N/A   Overcast
2:53 PM 19.0 °F 6.8 °F 7.0 °F 59% 30.01 in 10.0 mi NNE 11.5 mph - N/A   Overcast
3:53 PM 17.1 °F 4.3 °F 5.0 °F 59% 30.08 in 10.0 mi North 11.5 mph - N/A   Overcast
4:53 PM 15.1 °F 4.2 °F 3.9 °F 61% 30.11 in 10.0 mi NNE 8.1 mph - N/A   Overcast
5:53 PM 10.9 °F 2.9 °F 1.9 °F 67% 30.17 in 10.0 mi North 4.6 mph - N/A   Partly Cloudy
6:53 PM 9.0 °F 0.6 °F -0.0 °F 67% 30.20 in 10.0 mi North 4.6 mph - N/A   Clear
7:53 PM 5.0 °F - -0.9 °F 76% 30.24 in 10.0 mi Calm Calm - N/A   Clear
8:53 PM 3.0 °F - -2.9 °F 76% 30.25 in 10.0 mi Calm Calm - N/A   Clear
9:53 PM -0.0 °F -7.9 °F -5.1 °F 79% 30.23 in 10.0 mi SE 3.5 mph - N/A   Clear
10:53 PM -2.9 °F - -8.0 °F 79% 30.23 in 10.0 mi Calm Calm - N/A   Clear
11:53 PM -4.0 °F - -9.0 °F 79% 30.24 in 10.0 mi Calm Calm - N/A   Clear